Voltar ao catálogo

DELTA 1 DEB

AtivoUNKNOWN
NORAD 12535·DEBRIS·🇺🇸 United States

Lançado Jul 29, 1976 de Vandenberg Space Force Base

Loading…

Próximas Passagens (próximas 24 horas)

TLE

AtualizadoSource: Space-Track

Época: Sep 12, 2026, 07:00 UTC

1 12535U 76077DQ  26255.29217223  .00000063  00000-0  15058-2 0  9991
2 12535 102.3345 188.3100 0402874  47.3744 102.9083 11.66375430 72807

Acompanhe DELTA 1 DEB em tempo real com AllMySat

Download on the App Store